Wind_Speed
40 38 33 37 43 46 48 54 58 58 64 67 65 67 63 66 67 76 74 76 77 78 81 84 83 82 82 83 84 88 90 82 89 85 91 98 100 104 100 91 89 90 82 88 83
40 41 44 45 46 52 49 58 62 58 64 64 65 64 64 71 75 81 88 91 89 89 91 91 89 85 84 85 86 89 87 90 92 91 90 97 100 105 104 98 91 91 82 85 89
44 47 46 50 51 59 58 60 58 63 71 73 71 66 70 75 82 84 89 91 94 93 93 91 88 84 83 85 88 89 87 92 93 96 93 93 102 100 104 100 97 93 88 84 87
46 41 40 49 50 56 59 67 65 63 66 69 70 71 77 82 84 89 92 97 95 92 92 91 90 87 82 84 88 86 89 91 92 93 94 93 98 104 100 98 102 101 89 90 82
49 48 49 57 52 53 65 68 71 67 67 73 74 76 81 88 90 92 95 93 92 93 95 94 93 92 88 87 88 87 90 91 92 92 90 90 94 102 103 100 101 104 97 87 92
55 52 53 64 58 63 74 70 77 73 72 74 77 84 90 91 93 92 91 93 95 95 95 93 92 92 89 89 87 90 89 90 91 92 92 92 90 97 96 107 107 104 104 92 89
56 58 59 65 63 76 80 74 78 78 78 80 82 89 94 97 93 91 93 95 96 92 89 86 82 79 77 80 80 81 83 88 90 93 94 98 93 88 100 111 113 107 105 99 93
59 59 61 69 68 82 86 83 79 84 81 84 87 92 98 96 94 94 93 95 93 83 73 69 67 65 63 65 71 72 73 81 91 96 91 95 88 94 105 112 112 111 106 103 97
60 65 64 73 70 85 92 82 82 83 85 88 91 99 98 96 94 95 94 92 80 68 60 55 51 51 52 53 61 65 67 73 87 91 89 83 82 96 106 110 111 113 107 103 101
62 64 70 70 74 93 92 83 81 85 88 91 96 97 93 96 97 94 94 81 69 61 54 49 44 42 43 43 51 59 58 68 78 92 89 80 83 98 104 107 110 113 112 104 101
57 59 65 71 82 96 89 84 81 84 90 92 97 93 92 98 103 97 90 75 66 56 49 40 36 35 35 38 41 47 52 62 73 88 85 81 83 92 96 102 105 107 112 105 100
61 65 64 70 87 96 91 85 85 86 90 94 98 95 92 95 95 94 82 69 61 51 43 37 31 31 30 31 35 39 45 52 65 78 76 74 74 84 92 96 103 104 109 107 103
63 63 67 80 93 94 88 87 85 89 93 96 96 96 93 91 97 92 76 67 58 50 45 37 30 28 27 24 29 31 39 44 59 69 70 70 70 73 82 91 99 102 106 108 103
64 71 75 86 95 94 88 91 88 91 93 96 94 94 95 90 99 84 70 60 49 45 41 40 38 30 21 22 26 26 32 38 50 55 61 64 66 69 77 84 90 97 102 107 104
66 74 78 90 98 95 90 94 91 93 95 95 95 97 97 97 91 77 64 56 48 38 30 28 27 28 24 16 19 17 25 33 39 46 50 53 56 71 78 74 79 85 95 103 104
68 77 86 92 95 94 90 92 92 91 91 96 96 98 93 100 84 67 56 48 42 39 33 30 27 24 22 19 12 10 16 26 32 37 46 50 53 64 64 69 77 82 85 95 104
72 80 88 94 94 94 92 90 92 91 93 95 92 96 94 96 76 61 52 42 36 33 31 32 27 22 19 14 12 8 10 18 23 29 34 40 46 64 61 71 73 81 85 88 99
73 87 90 93 89 92 92 91 89 87 88 93 90 96 94 93 69 56 45 37 33 29 27 24 22 17 17 18 13 8 5 11 18 25 31 37 47 59 56 63 68 81 82 87 87
79 85 92 89 91 91 89 91 90 87 89 90 92 92 96 84 61 50 40 36 30 24 25 24 20 18 21 23 19 14 4 4 11 21 27 33 42 54 54 59 64 73 78 78 84
80 86 90 88 88 86 89 91 88 86 90 93 93 90 95 74 51 44 41 29 25 28 28 32 31 25 22 25 21 14 8 4 10 14 23 28 37 50 49 55 59 63 71 72 82
81 85 88 87 85 86 85 89 85 84 88 92 92 89 93 65 50 46 40 27 28 31 33 33 32 30 27 26 21 13 11 7 10 12 17 24 35 45 44 53 55 62 67 67 74
85 82 88 81 86 84 84 85 82 83 87 90 90 87 89 58 52 44 34 27 32 29 31 30 30 29 30 26 20 15 12 10 10 11 11 17 25 36 41 52 53 58 60 63 67
78 88 87 77 82 80 80 82 79 81 86 88 88 83 84 52 48 40 30 29 31 28 26 30 32 31 29 26 22 19 20 14 22 25 24 21 27 33 36 50 53 56 58 57 59
81 83 83 77 80 78 77 79 76 80 84 84 85 79 76 47 42 35 30 30 29 34 39 35 30 30 31 30 26 23 23 21 27 30 27 26 26 32 34 39 44 52 54 55 55
74 81 78 71 78 72 74 73 73 79 83 81 81 77 74 43 35 32 25 22 26 33 36 39 40 36 33 32 29 24 24 24 28 28 29 27 33 36 38 35 37 41 47 49 50
74 78 74 69 76 68 70 69 71 76 78 78 77 72 76 44 29 19 23 23 27 29 35 36 36 35 33 32 32 28 27 24 28 31 32 28 27 35 43 40 42 45 43 45 48
74 74 70 68 73 66 67 65 66 75 74 73 73 69 72 36 21 9 21 20 31 34 37 42 42 41 36 37 35 33 29 27 30 35 38 36 37 37 42 47 46 43 44 46 49
Wind_Direction
332 325 324 336 326 316 323 313 308 304 303 307 307 301 300 303 297 299 300 300 295 292 289 287 285 279 271 267 259 252 252 246 246 239 235 234 232 232 232 231 230 232 224 226 224
321 321 315 312 321 337 309 313 304 306 308 311 306 302 306 298 299 302 299 298 298 294 291 287 285 279 274 269 263 257 252 248 245 241 236 234 231 231 231 231 230 228 225 226 224
323 320 320 313 304 316 314 323 312 305 306 304 309 304 306 303 302 301 299 299 297 294 290 287 284 279 273 268 264 258 254 248 246 245 240 232 234 230 230 231 233 233 224 225 226
326 318 314 326 316 309 316 314 318 309 307 309 311 308 310 305 304 303 304 302 297 294 291 287 283 277 271 266 262 258 254 249 244 242 241 235 230 230 229 230 231 231 227 223 227
333 316 325 318 312 318 322 317 319 313 313 314 311 313 313 310 308 307 304 302 300 295 289 285 281 276 270 263 258 257 251 249 246 242 239 238 230 229 226 228 229 230 226 223 226
311 324 319 331 328 326 331 321 313 319 319 316 315 316 315 312 311 309 308 305 300 294 290 286 281 277 271 267 261 254 249 247 246 242 239 234 232 227 228 228 227 226 225 221 222
314 308 326 325 327 335 333 323 315 320 322 318 318 318 317 316 315 314 314 309 303 299 294 289 285 279 272 266 262 254 250 245 242 242 237 232 226 225 228 225 225 224 225 218 220
308 311 319 321 327 333 336 330 317 321 322 321 321 321 320 320 319 319 315 312 307 304 299 293 286 279 272 265 258 254 248 241 237 238 237 233 226 222 224 226 223 223 224 218 218
312 313 320 322 324 333 336 330 320 324 324 324 325 322 323 323 321 320 318 316 314 310 305 298 290 282 275 262 255 250 241 237 236 237 236 232 226 228 220 224 222 222 222 221 216
312 316 322 319 327 335 336 330 325 326 327 328 325 325 326 326 323 324 323 323 320 318 314 307 298 287 277 264 255 250 239 236 230 236 236 232 223 225 222 219 222 220 220 220 215
324 317 315 318 328 337 337 331 327 327 327 328 326 329 331 330 329 329 329 329 327 323 319 308 296 288 279 269 258 251 242 233 228 230 233 232 226 223 223 219 220 219 219 219 216
316 314 319 321 328 338 337 333 330 330 329 329 330 332 334 332 331 333 333 331 329 328 321 316 309 299 287 273 264 255 244 234 231 230 231 231 226 221 219 217 217 217 217 217 216
313 322 320 328 336 341 337 334 331 332 331 332 333 335 334 335 333 335 334 334 333 332 331 330 323 313 302 287 269 254 249 238 233 230 229 230 225 223 221 216 215 217 214 215 216
316 323 328 332 337 340 338 335 332 333 333 334 336 336 334 338 337 335 336 335 336 336 336 335 331 330 323 302 283 262 247 240 237 233 228 221 220 219 221 217 215 216 213 214 212
310 317 328 332 338 340 337 337 334 334 335 337 339 338 339 341 340 337 337 339 337 336 343 339 342 337 333 317 290 281 251 243 236 235 228 221 216 218 217 214 213 215 215 211 213
314 322 328 333 338 340 338 336 335 335 337 342 341 342 345 342 341 339 341 339 338 343 352 352 350 351 350 330 314 283 252 243 237 232 223 214 202 220 210 212 209 210 212 213 211
315 324 329 333 338 340 338 336 336 336 340 343 343 344 346 343 342 343 345 348 349 351 355 357 354 357 355 355 338 308 256 239 232 229 225 215 201 221 202 208 207 208 211 213 213
314 321 325 333 338 340 339 337 337 337 343 344 344 345 349 344 344 348 347 357 1 3 6 2 360 1 16 14 10 10 319 242 221 212 215 212 197 211 199 201 207 207 209 212 212
317 322 327 336 340 340 338 337 337 339 344 345 345 347 349 347 349 353 1 7 6 15 19 17 15 24 39 36 25 21 20 185 216 211 205 200 192 201 194 192 202 206 208 208 210
321 325 330 335 339 339 339 337 338 340 346 348 347 350 351 349 358 4 6 13 20 32 32 32 31 32 46 46 43 51 67 131 172 197 198 193 185 191 193 186 193 200 204 204 207
320 325 329 335 338 339 338 336 338 341 347 350 348 352 351 352 5 10 2 12 34 42 39 37 35 33 37 49 40 45 82 126 153 168 187 181 180 180 182 179 186 192 198 199 203
319 324 328 336 336 337 336 335 338 343 350 351 349 352 353 356 14 2 3 34 39 38 39 31 33 37 39 45 49 53 84 96 115 107 124 144 169 172 173 173 180 186 191 197 200
318 320 327 335 337 336 335 336 338 344 352 352 350 354 355 2 15 3 20 43 43 39 36 31 32 45 48 47 52 57 71 83 91 90 101 118 157 170 174 172 174 179 187 193 198
315 321 328 334 336 335 334 337 339 348 353 352 352 355 356 8 11 6 28 46 42 48 47 46 49 51 53 52 54 61 80 89 93 108 115 130 150 160 168 170 174 176 180 187 193
316 322 330 331 335 334 332 336 340 349 353 353 353 356 358 15 13 2 40 46 47 60 62 55 54 54 56 61 63 70 84 99 98 106 113 129 140 151 161 167 168 172 181 186 190
317 321 329 330 334 332 331 336 343 349 354 354 354 356 1 14 5 23 27 56 71 71 62 57 56 58 65 70 73 76 85 94 104 109 115 120 123 143 154 160 166 174 184 190 195
313 318 326 329 331 330 331 335 344 349 354 355 354 356 0 13 4 64 13 76 75 58 57 48 41 47 59 69 77 80 92 98 106 112 115 120 129 141 154 164 172 182 192 197 201
Height
10737 10731 10727 10723 10719 10713 10707 10699 10692 10685 10677 10669 10661 10653 10644 10636 10627 10618 10607 10599 10590 10582 10574 10568 10562 10558 10554 10548 10546 10544 10555 10571 10572 10581 10591 10592 10599 10607 10619 10639 10652 10661 10683 10682 10693
10730 10725 10721 10717 10711 10704 10697 10689 10681 10673 10664 10655 10646 10637 10628 10619 10609 10598 10585 10575 10564 10555 10546 10539 10531 10528 10527 10522 10519 10518 10529 10539 10542 10549 10562 10571 10575 10590 10603 10621 10633 10642 10664 10671 10677
10725 10719 10714 10710 10701 10695 10687 10678 10668 10659 10651 10641 10632 10621 10610 10600 10590 10576 10563 10550 10537 10524 10513 10506 10501 10499 10498 10494 10489 10490 10504 10505 10514 10520 10533 10549 10556 10570 10585 10602 10617 10624 10648 10657 10660
10719 10713 10708 10701 10694 10684 10675 10665 10655 10644 10636 10626 10614 10602 10589 10578 10564 10551 10536 10520 10506 10494 10482 10474 10467 10464 10466 10461 10456 10467 10470 10474 10484 10493 10504 10518 10531 10545 10562 10582 10588 10598 10626 10641 10648
10712 10705 10699 10692 10683 10674 10665 10653 10641 10629 10620 10609 10595 10584 10570 10553 10543 10527 10510 10490 10474 10459 10445 10437 10431 10425 10429 10426 10425 10433 10434 10442 10454 10467 10479 10492 10508 10517 10545 10555 10563 10574 10600 10621 10632
10704 10697 10690 10682 10673 10663 10651 10639 10627 10615 10605 10591 10578 10562 10548 10533 10518 10499 10479 10460 10442 10424 10408 10398 10392 10387 10388 10386 10390 10392 10403 10414 10423 10438 10450 10464 10478 10496 10524 10528 10534 10551 10571 10600 10613
10695 10689 10681 10672 10662 10651 10638 10625 10612 10600 10588 10572 10559 10543 10524 10505 10487 10468 10450 10424 10402 10387 10374 10361 10354 10350 10350 10349 10352 10360 10371 10383 10397 10404 10414 10422 10450 10489 10487 10487 10507 10530 10544 10576 10591
10687 10680 10671 10662 10652 10640 10627 10612 10597 10585 10572 10556 10540 10523 10502 10480 10458 10442 10420 10395 10371 10354 10342 10330 10322 10318 10320 10321 10322 10333 10343 10353 10360 10363 10388 10393 10446 10453 10450 10459 10490 10507 10527 10553 10568
10678 10671 10662 10652 10640 10629 10614 10598 10583 10569 10555 10538 10520 10502 10481 10455 10438 10417 10394 10368 10347 10330 10318 10307 10300 10295 10295 10297 10294 10298 10315 10329 10334 10341 10357 10378 10419 10419 10420 10436 10464 10486 10509 10532 10552
10670 10662 10653 10642 10631 10617 10602 10586 10572 10551 10539 10521 10504 10486 10465 10436 10415 10396 10370 10346 10325 10310 10298 10289 10282 10278 10275 10275 10275 10276 10293 10300 10316 10314 10330 10356 10383 10377 10396 10420 10438 10463 10486 10511 10535
10662 10653 10643 10633 10622 10608 10593 10578 10562 10545 10525 10509 10489 10471 10446 10416 10379 10371 10346 10326 10307 10297 10286 10279 10270 10263 10260 10258 10259 10260 10272 10278 10284 10288 10304 10331 10349 10361 10383 10409 10425 10450 10471 10496 10521
10654 10644 10633 10623 10615 10593 10579 10565 10550 10533 10517 10495 10472 10450 10432 10408 10383 10355 10333 10314 10298 10287 10276 10267 10260 10252 10248 10247 10248 10250 10253 10262 10268 10271 10289 10312 10332 10343 10361 10388 10409 10427 10453 10483 10500
10646 10636 10627 10615 10602 10587 10569 10554 10537 10522 10503 10481 10459 10436 10417 10397 10366 10341 10321 10301 10289 10278 10264 10256 10251 10244 10239 10237 10235 10238 10241 10250 10250 10255 10281 10297 10320 10334 10355 10373 10388 10408 10436 10462 10489
10637 10628 10616 10605 10590 10575 10560 10545 10528 10510 10491 10470 10446 10425 10401 10383 10351 10330 10311 10297 10285 10273 10261 10250 10240 10237 10233 10229 10226 10229 10230 10236 10239 10249 10267 10274 10297 10320 10334 10355 10378 10397 10419 10446 10474
10629 10621 10610 10595 10582 10567 10551 10533 10516 10500 10479 10457 10431 10408 10378 10360 10346 10319 10302 10286 10277 10271 10261 10250 10241 10232 10227 10223 10219 10222 10224 10225 10231 10241 10257 10269 10290 10293 10310 10340 10369 10393 10412 10433 10461
10623 10613 10601 10589 10574 10559 10542 10526 10507 10489 10472 10447 10420 10399 10381 10352 10333 10315 10299 10285 10273 10262 10254 10246 10238 10231 10227 10221 10216 10216 10216 10219 10225 10234 10240 10252 10275 10280 10311 10333 10353 10373 10398 10422 10439
10614 10605 10592 10580 10565 10551 10534 10519 10501 10481 10457 10437 10420 10398 10375 10351 10327 10310 10295 10282 10273 10264 10253 10245 10237 10231 10224 10219 10216 10214 10213 10215 10221 10228 10238 10250 10269 10267 10293 10313 10338 10363 10383 10404 10428
10606 10598 10584 10573 10558 10544 10527 10510 10497 10479 10459 10435 10416 10390 10369 10342 10323 10306 10294 10284 10276 10267 10258 10250 10242 10233 10225 10220 10217 10215 10214 10214 10216 10220 10228 10240 10256 10263 10286 10309 10334 10351 10371 10393 10419
10598 10589 10577 10565 10552 10536 10520 10505 10486 10469 10451 10432 10411 10392 10364 10341 10321 10306 10294 10286 10279 10271 10263 10255 10246 10235 10227 10224 10221 10218 10215 10214 10217 10220 10225 10234 10249 10261 10279 10302 10324 10348 10369 10389 10413
10590 10580 10569 10558 10546 10531 10516 10500 10485 10466 10446 10422 10403 10386 10364 10341 10325 10309 10300 10291 10284 10276 10268 10258 10250 10243 10234 10228 10225 10221 10219 10218 10217 10221 10226 10234 10246 10260 10279 10297 10317 10342 10362 10382 10403
10582 10573 10564 10552 10540 10527 10511 10495 10480 10463 10443 10420 10400 10385 10365 10342 10327 10314 10307 10298 10289 10281 10274 10266 10258 10251 10242 10235 10232 10228 10224 10223 10223 10226 10232 10239 10246 10259 10277 10297 10315 10333 10356 10381 10402
10576 10568 10559 10548 10536 10524 10509 10493 10478 10461 10442 10421 10401 10383 10366 10345 10330 10321 10314 10303 10297 10291 10282 10275 10268 10259 10251 10245 10240 10237 10234 10232 10232 10237 10244 10251 10264 10273 10286 10301 10316 10336 10360 10380 10399
10568 10562 10554 10543 10533 10518 10504 10490 10475 10459 10440 10420 10400 10386 10368 10351 10337 10330 10322 10313 10305 10298 10292 10284 10275 10267 10260 10254 10250 10246 10245 10244 10245 10247 10254 10262 10272 10285 10299 10308 10322 10340 10361 10380 10397
10562 10554 10546 10537 10528 10516 10503 10489 10473 10457 10440 10424 10404 10389 10373 10354 10346 10339 10331 10323 10314 10307 10298 10291 10284 10276 10269 10263 10259 10256 10256 10257 10258 10260 10265 10271 10283 10296 10311 10324 10337 10350 10367 10383 10398
10554 10547 10541 10532 10524 10513 10501 10489 10474 10459 10441 10423 10409 10392 10377 10360 10354 10347 10340 10332 10324 10316 10309 10301 10294 10286 10279 10274 10270 10268 10268 10268 10272 10276 10279 10285 10293 10307 10322 10334 10349 10364 10378 10391 10404
10546 10540 10536 10527 10520 10509 10498 10488 10471 10459 10444 10426 10413 10398 10382 10367 10363 10356 10349 10340 10334 10326 10319 10312 10305 10298 10290 10286 10281 10280 10281 10283 10286 10289 10295 10303 10312 10320 10334 10349 10362 10375 10388 10398 10408
10539 10534 10529 10523 10516 10506 10496 10487 10472 10458 10446 10431 10416 10403 10390 10377 10371 10364 10358 10351 10343 10338 10331 10320 10312 10307 10301 10296 10293 10293 10295 10296 10300 10305 10311 10318 10326 10336 10346 10359 10369 10380 10388 10397 10406